Time,TemperatureF,DewpointF,PressureIn,WindDirection,WindDirectionDegrees,WindSpeedMPH,WindSpeedGustMPH,Humidity,HourlyPrecipIn,Conditions,Clouds,dailyrainin,SoftwareType,DateUTC
2013-01-12 00:12:00,40.4,39.9,29.88,WSW,257,0.0,0.0,98,0.00,,,0.00,Wunderground v.1.15,2013-01-12 05:12:00,
2013-01-12 00:42:00,40.9,40.4,29.87,WSW,257,0.0,0.0,98,0.00,,,0.00,Wunderground v.1.15,2013-01-12 05:42:00,
2013-01-12 01:12:00,41.2,40.7,29.87,NNW,345,0.0,0.0,98,0.00,,,0.01,Wunderground v.1.15,2013-01-12 06:12:00,
2013-01-12 01:42:00,42.3,41.8,29.88,NNW,345,0.0,0.0,98,0.00,,,0.01,Wunderground v.1.15,2013-01-12 06:42:00,
2013-01-12 02:12:00,42.7,42.2,29.88,North,355,1.0,1.0,98,0.00,,,0.01,Wunderground v.1.15,2013-01-12 07:12:00,
2013-01-12 02:42:00,43.2,42.9,29.88,North,355,0.0,1.0,99,0.00,,,0.02,Wunderground v.1.15,2013-01-12 07:42:00,
2013-01-12 03:12:00,42.9,42.4,29.89,North,360,0.0,0.0,98,0.00,,,0.02,Wunderground v.1.15,2013-01-12 08:12:00,
2013-01-12 03:42:00,43.1,42.6,29.88,North,360,0.0,0.0,98,0.00,,,0.02,Wunderground v.1.15,2013-01-12 08:42:00,
2013-01-12 04:12:00,43.1,42.6,29.87,North,360,0.0,0.0,98,0.00,,,0.02,Wunderground v.1.15,2013-01-12 09:12:00,
2013-01-12 04:42:00,43.3,43.0,29.87,North,360,0.0,0.0,99,0.00,,,0.02,Wunderground v.1.15,2013-01-12 09:42:00,
2013-01-12 05:12:00,43.4,43.1,29.87,North,360,0.0,0.0,99,0.00,,,0.02,Wunderground v.1.15,2013-01-12 10:12:00,
2013-01-12 05:42:00,43.2,42.9,29.89,North,360,0.0,0.0,99,0.00,,,0.02,Wunderground v.1.15,2013-01-12 10:42:00,
2013-01-12 06:12:00,43.2,42.9,29.89,North,360,0.0,1.0,99,0.00,,,0.02,Wunderground v.1.15,2013-01-12 11:12:00,
2013-01-12 06:42:00,43.4,43.1,29.90,North,360,0.0,0.0,99,0.00,,,0.02,Wunderground v.1.15,2013-01-12 11:42:00,
2013-01-12 07:12:00,43.5,43.2,29.90,North,360,0.0,0.0,99,0.00,,,0.02,Wunderground v.1.15,2013-01-12 12:12:00,
2013-01-12 07:42:00,43.4,43.1,29.92,North,360,0.0,0.0,99,0.00,,,0.02,Wunderground v.1.15,2013-01-12 12:42:00,
2013-01-12 08:12:00,43.2,42.9,29.94,North,360,0.0,0.0,99,0.00,,,0.02,Wunderground v.1.15,2013-01-12 13:12:00,
2013-01-12 08:42:00,43.5,43.2,29.92,North,360,0.0,0.0,99,0.00,,,0.02,Wunderground v.1.15,2013-01-12 13:42:00,
2013-01-12 09:12:00,44.2,43.9,29.93,North,360,0.0,0.0,99,0.00,,,0.02,Wunderground v.1.15,2013-01-12 14:12:00,
2013-01-12 09:42:00,45.0,44.7,29.92,North,360,0.0,0.0,99,0.00,,,0.02,Wunderground v.1.15,2013-01-12 14:42:00,
2013-01-12 10:12:00,45.6,45.3,29.93,North,360,0.0,0.0,99,0.00,,,0.02,Wunderground v.1.15,2013-01-12 15:12:00,
2013-01-12 10:42:00,46.3,46.0,29.93,North,360,0.0,0.0,99,0.00,,,0.02,Wunderground v.1.15,2013-01-12 15:42:00,
2013-01-12 11:12:00,46.6,46.1,29.92,North,360,0.0,0.0,98,0.00,,,0.02,Wunderground v.1.15,2013-01-12 16:12:00,
2013-01-12 11:42:00,46.6,46.1,29.92,North,360,0.0,0.0,98,0.00,,,0.02,Wunderground v.1.15,2013-01-12 16:42:00,
2013-01-12 12:12:00,46.5,45.7,29.91,North,360,0.0,0.0,97,0.00,,,0.02,Wunderground v.1.15,2013-01-12 17:12:00,
2013-01-12 12:42:00,46.5,45.7,29.90,North,360,0.0,0.0,97,0.00,,,0.02,Wunderground v.1.15,2013-01-12 17:42:00,
2013-01-12 13:12:00,46.7,45.9,29.92,North,360,0.0,0.0,97,0.00,,,0.02,Wunderground v.1.15,2013-01-12 18:12:00,
2013-01-12 13:42:00,47.0,46.2,29.92,North,360,0.0,0.0,97,0.00,,,0.02,Wunderground v.1.15,2013-01-12 18:42:00,
2013-01-12 14:12:00,46.5,45.7,29.92,WSW,253,0.0,0.0,97,0.00,,,0.02,Wunderground v.1.15,2013-01-12 19:12:00,
2013-01-12 14:42:00,46.7,45.9,29.91,WSW,253,0.0,0.0,97,0.00,,,0.02,Wunderground v.1.15,2013-01-12 19:42:00,
2013-01-12 15:12:00,46.6,45.8,29.92,WSW,253,1.0,1.0,97,0.00,,,0.02,Wunderground v.1.15,2013-01-12 20:12:00,
2013-01-12 15:42:00,46.3,45.5,29.92,SSE,150,0.0,0.0,97,0.00,,,0.02,Wunderground v.1.15,2013-01-12 20:42:00,
2013-01-12 16:12:00,45.9,45.1,29.92,ESE,103,0.0,0.0,97,0.00,,,0.02,Wunderground v.1.15,2013-01-12 21:12:00,
2013-01-12 16:42:00,45.6,44.8,29.93,ESE,103,0.0,0.0,97,0.00,,,0.02,Wunderground v.1.15,2013-01-12 21:42:00,
2013-01-12 17:12:00,45.7,45.2,29.95,ESE,104,0.0,0.0,98,0.00,,,0.02,Wunderground v.1.15,2013-01-12 22:12:00,
2013-01-12 17:42:00,45.5,45.0,29.95,ESE,104,0.0,0.0,98,0.00,,,0.02,Wunderground v.1.15,2013-01-12 22:42:00,
2013-01-12 18:12:00,45.5,45.0,29.94,ESE,104,0.0,0.0,98,0.00,,,0.02,Wunderground v.1.15,2013-01-12 23:12:00,
2013-01-12 18:42:00,45.5,45.0,29.93,ESE,103,0.0,0.0,98,0.00,,,0.02,Wunderground v.1.15,2013-01-12 23:42:00,
2013-01-12 19:12:00,45.1,44.6,29.92,ESE,103,0.0,0.0,98,0.00,,,0.02,Wunderground v.1.15,2013-01-13 00:12:00,
2013-01-12 19:42:00,45.0,44.7,29.94,ESE,103,0.0,0.0,99,0.00,,,0.02,Wunderground v.1.15,2013-01-13 00:42:00,
2013-01-12 20:12:00,44.9,44.6,29.94,ESE,103,0.0,0.0,99,0.00,,,0.02,Wunderground v.1.15,2013-01-13 01:12:00,
2013-01-12 20:42:00,44.7,44.4,29.92,ESE,104,0.0,0.0,99,0.00,,,0.02,Wunderground v.1.15,2013-01-13 01:42:00,
2013-01-12 21:12:00,44.6,44.3,29.92,ESE,104,0.0,0.0,99,0.00,,,0.02,Wunderground v.1.15,2013-01-13 02:12:00,
2013-01-12 21:42:00,44.6,44.3,29.91,ESE,104,0.0,0.0,99,0.00,,,0.02,Wunderground v.1.15,2013-01-13 02:42:00,
2013-01-12 22:12:00,44.5,44.2,29.92,ESE,103,0.0,0.0,99,0.00,,,0.02,Wunderground v.1.15,2013-01-13 03:12:00,
2013-01-12 22:42:00,44.5,44.2,29.92,ESE,103,0.0,0.0,99,0.00,,,0.02,Wunderground v.1.15,2013-01-13 03:42:00,
2013-01-12 23:12:00,44.3,44.0,29.91,ESE,104,0.0,0.0,99,0.00,,,0.02,Wunderground v.1.15,2013-01-13 04:12:00,
2013-01-12 23:42:00,44.4,44.1,29.92,ESE,104,0.0,0.0,99,0.00,,,0.02,Wunderground v.1.15,2013-01-13 04:42:00,